Location: Stockholm
(59.3293°N, 18.0686°E)
Time: 09:08:02
(UTC+02:00)

Amateur Radio Satellites - All Passes

Search period start: 18 October 2017 08:38
Search period end: 19 October 2017 08:38
Location: Stockholm, 59.3293°N, 18.0686°E

Satellite Date Start Highest point End Downlink Frequencies (MHz)
Time Altitude Azimuth
CUBEBUG 2 18 Oct 08:45:52 08:50:40 85° 108° (ESE) 08:55:19 437.445
XW-2A 18 Oct 08:51:56 08:55:20 74° 105° (ESE) 08:58:40 145.665 - 145.685
AO-73 18 Oct 08:53:59 08:58:12 39° 96° (E) 09:02:17 145.935
FO-29 18 Oct 08:58:10 09:03:25 61° 258° (WSW) 09:09:12 435.910
AAUSAT CUBESAT 2 18 Oct 09:01:09 09:05:16 67° 103° (ESE) 09:09:23 437.432
CUTE-I 18 Oct 09:05:49 09:10:36 34° 306° (NW) 09:15:23 437.470
RS-15 18 Oct 09:05:55 09:18:09 82° 221° (SW) 09:29:44 29.354- 29.394
AO-7 18 Oct 09:07:10 09:13:15 24° 346° (NNW) 09:19:20 .
AIST 2D 18 Oct 09:13:20 09:15:09 14° 52° (NE) 09:17:00 435.315
ZACube-1 18 Oct 09:14:10 09:18:40 61° 102° (ESE) 09:23:00 437.345
DOVE 4 18 Oct 09:16:45 09:18:01 11° 322° (NW) 09:19:18 437.250
Max Valier Satellite 18 Oct 09:18:05 09:18:50 10° 82° (E) 09:19:36 145.860
LilacSat-2 18 Oct 09:18:56 09:20:40 13° 312° (NW) 09:22:22 437.200
XW-2F 18 Oct 09:19:47 09:21:37 13° 311° (NW) 09:23:26 145.980 - 146.000
DELFI C3 18 Oct 09:21:19 09:23:46 16° 87° (E) 09:26:12 145.870
KAITUO 1B 18 Oct 09:22:50 09:24:50 14° 310° (NW) 09:26:49 145.475/437.950
NO-84 18 Oct 09:25:15 09:28:55 34° 200° (SSW) 09:32:20 435.350 FM
STRAND 1 18 Oct 09:27:48 09:28:56 11° 283° (WNW) 09:30:05 437.568
PCSat 18 Oct 09:28:54 09:33:51 37° 121° (ESE) 09:38:49 145.827
EO-79 18 Oct 09:29:37 09:31:57 15° 45° (NE) 09:34:18 145.935-145.965
SO-50 18 Oct 09:29:47 09:34:17 79° 143° (SE) 09:38:50 436.795
UWE-3 18 Oct 09:30:10 09:34:48 68° 291° (WNW) 09:39:17 435.000/436.395/437.385
XW-2D 18 Oct 09:30:28 09:31:33 11° 314° (NW) 09:32:37 145.860 - 145.880
UNISAT 6 18 Oct 09:31:30 09:36:12 83° 252° (WSW) 09:40:58 437.425
POLYITAN 1 18 Oct 09:33:19 09:35:50 15° 46° (NE) 09:38:21 437.675
NUDT-PHONESAT 18 Oct 09:42:40 09:43:37 11° 314° (NW) 09:44:35 437.300
TIGRISAT 18 Oct 09:47:12 09:51:51 69° 256° (WSW) 09:56:36 435.000
CUTE 1.7 + AOD 2 18 Oct 09:52:00 09:55:20 23° 305° (NW) 09:58:38 437.475
QB50P2 18 Oct 09:52:27 09:55:39 21° 52° (NE) 09:58:51 145.880/145.840
PRISM 18 Oct 09:53:17 09:57:21 87° 74° (ENE) 10:01:28 437.425
Oscar 11 18 Oct 09:56:09 10:00:31 88° 115° (ESE) 10:04:49 .
NANOSAT C BR1 18 Oct 09:58:43 10:01:50 20° 51° (NE) 10:04:57 145.865
HO-68 18 Oct 10:03:41 10:10:29 46° 308° (NW) 10:17:16 435.675
SEEDS 18 Oct 10:04:36 10:08:00 25° 304° (NW) 10:11:24 437.485
Oscar 19 18 Oct 10:06:23 10:07:58 11° 31° (NNE) 10:09:32 437.125/150
DUCHIFAT 1 18 Oct 10:10:51 10:14:07 22° 53° (NE) 10:17:24 145.980
Gurwin Techsat 1B 18 Oct 10:15:46 10:17:21 11° 28° (NNE) 10:18:55 435.225
CUBEBUG 2 18 Oct 10:23:01 10:26:47 24° 308° (NW) 10:30:31 437.445
XW-2A 18 Oct 10:25:22 10:27:39 17° 305° (NW) 10:29:55 145.665 - 145.685
YUBILEINY 18 Oct 10:26:25 10:35:07 85° 101° (E) 10:43:55 435.215
AO-73 18 Oct 10:30:16 10:34:29 41° 298° (WNW) 10:38:35 145.935
BUGSAT 1 18 Oct 10:30:59 10:33:12 14° 45° (NE) 10:35:27 437.445
AAUSAT CUBESAT 2 18 Oct 10:37:05 10:40:25 24° 304° (NW) 10:43:45 437.432
AIST 2D 18 Oct 10:44:16 10:47:46 75° 73° (ENE) 10:51:18 435.315
EO-88 18 Oct 10:46:21 10:49:55 46° 100° (E) 10:53:25 145.990 - 145.960
CUTE-I 18 Oct 10:47:02 10:49:18 13° 329° (NNW) 10:51:34 437.470
FO-29 18 Oct 10:47:09 10:50:01 14° 283° (WNW) 10:53:00 435.910
Max Valier Satellite 18 Oct 10:49:44 10:53:27 65° 104° (ESE) 10:57:07 145.860
ZACube-1 18 Oct 10:50:49 10:54:41 29° 303° (WNW) 10:58:28 437.345
DELFI C3 18 Oct 10:55:08 10:59:07 89° 256° (WSW) 11:03:04 145.870
AO-7 18 Oct 10:57:33 11:03:35 23° 13° (NNE) 11:09:38 .
EO-79 18 Oct 11:02:44 11:06:56 56° 66° (ENE) 11:11:09 145.935-145.965
NO-84 18 Oct 11:03:23 11:05:26 14° 221° (SW) 11:07:25 435.350 FM
POLYITAN 1 18 Oct 11:06:37 11:10:52 60° 67° (ENE) 11:15:08 437.675
UWE-3 18 Oct 11:07:26 11:10:31 18° 312° (NW) 11:13:33 435.000/436.395/437.385
UNISAT 6 18 Oct 11:10:28 11:13:39 18° 275° (W) 11:16:52 437.425
SO-50 18 Oct 11:10:39 11:15:03 49° 346° (NNW) 11:19:30 436.795
PCSat 18 Oct 11:11:34 11:17:00 74° 323° (NW) 11:22:28 145.827
RS-15 18 Oct 11:18:42 11:29:12 38° 250° (WSW) 11:39:17 29.354- 29.394
QB50P2 18 Oct 11:26:39 11:30:57 89° 263° (W) 11:35:17 145.880/145.840
TIGRISAT 18 Oct 11:26:48 11:29:27 15° 278° (W) 11:32:07 435.000
PRISM 18 Oct 11:30:33 11:33:13 17° 272° (W) 11:35:54 437.425
ESTCUBE 1 18 Oct 11:32:25 11:36:03 23° 90° (E) 11:39:40 437.505/2401.250
NANOSAT C BR1 18 Oct 11:32:45 11:37:01 87° 78° (ENE) 11:41:20 145.865
Oscar 11 18 Oct 11:32:57 11:36:09 21° 308° (NW) 11:39:23 .
Oscar 19 18 Oct 11:41:25 11:45:54 31° 53° (NE) 11:50:24 437.125/150
M-CUBED/EXP-1 PRIME 18 Oct 11:44:17 11:47:15 30° 54° (NE) 11:50:11 437.505
LO-87 18 Oct 11:44:48 11:48:11 34° 97° (E) 11:51:32 145.935 - 145.965
DUCHIFAT 1 18 Oct 11:45:05 11:49:21 83° 256° (WSW) 11:53:39 145.980
Gurwin Techsat 1B 18 Oct 11:51:17 11:55:49 29° 51° (NE) 12:00:21 435.225
HO-68 18 Oct 11:51:39 11:56:45 21° 332° (NNW) 12:01:52 435.675
BUGSAT 1 18 Oct 12:03:39 12:07:45 54° 66° (ENE) 12:11:56 437.445
AO-73 18 Oct 12:08:01 12:09:40 12° 319° (NW) 12:11:18 145.935
nSIGHT-1 18 Oct 12:11:49 12:12:44 11° 152° (SSE) 12:13:39 .
ITAMSAT 1 18 Oct 12:12:01 12:13:51 12° 30° (NNE) 12:15:40 435.822/435.867
AIST 2D 18 Oct 12:19:13 12:21:24 16° 272° (W) 12:23:36 435.315
EO-88 18 Oct 12:20:19 12:23:24 26° 300° (WNW) 12:26:30 145.990 - 145.960
Max Valier Satellite 18 Oct 12:24:06 12:26:57 21° 304° (NW) 12:29:47 145.860
YUBILEINY 18 Oct 12:25:05 12:33:01 37° 308° (NW) 12:41:03 435.215
DELFI C3 18 Oct 12:30:38 12:33:23 18° 307° (NW) 12:36:07 145.870
ISS 18 Oct 12:36:55 12:38:36 13° 156° (SSE) 12:40:17 437.550
EO-79 18 Oct 12:39:19 12:42:59 27° 267° (W) 12:46:41 145.935-145.965
POLYITAN 1 18 Oct 12:43:22 12:46:59 26° 268° (W) 12:50:37 437.675
SPROUT 18 Oct 12:45:44 12:49:36 30° 94° (E) 12:53:25 437.525
AO-7 18 Oct 12:46:59 12:54:26 39° 39° (NE) 13:01:52 .
SO-50 18 Oct 12:51:48 12:56:11 46° 10° (N) 13:00:38 436.795
PCSat 18 Oct 12:55:59 13:01:08 40° 348° (NNW) 13:06:15 145.827
QB50P2 18 Oct 13:04:31 13:07:23 17° 273° (W) 13:10:16 145.880/145.840
50 SAT 18 Oct 13:07:41 13:08:28 11° 86° (E) 13:09:17 437.505
ESTCUBE 1 18 Oct 13:08:50 13:13:19 70° 291° (WNW) 13:17:46 437.505/2401.250
VELOX 1 18 Oct 13:10:03 13:14:08 35° 96° (E) 13:18:14 145.980
NANOSAT C BR1 18 Oct 13:10:24 13:13:20 18° 273° (W) 13:16:17 145.865
LO-87 18 Oct 13:18:16 13:21:36 34° 297° (WNW) 13:24:56 145.935 - 145.965
M-CUBED/EXP-1 PRIME 18 Oct 13:18:37 13:21:43 35° 253° (WSW) 13:24:46 437.505
Oscar 19 18 Oct 13:19:45 13:24:56 71° 255° (WSW) 13:30:07 437.125/150
UKube-1 18 Oct 13:20:06 13:21:27 11° 82° (E) 13:22:47 .
DUCHIFAT 1 18 Oct 13:23:04 13:25:43 16° 274° (W) 13:28:21 145.980
BEESAT 2 18 Oct 13:23:32 13:25:03 12° 114° (ESE) 13:26:33 435.950
Gurwin Techsat 1B 18 Oct 13:30:02 13:35:22 79° 253° (WSW) 13:40:45 435.225
RS-15 18 Oct 13:35:48 13:37:32 10° 278° (W) 13:39:16 29.354- 29.394
HO-68 18 Oct 13:38:22 13:42:09 15° 358° (N) 13:45:55 435.675
BUGSAT 1 18 Oct 13:39:45 13:43:23 28° 267° (W) 13:47:04 437.445
BEESAT 3 18 Oct 13:43:52 13:47:32 34° 129° (SE) 13:51:13 437.485
nSIGHT-1 18 Oct 13:45:45 13:48:11 20° 172° (S) 13:50:36 .
ITAMSAT 1 18 Oct 13:47:23 13:51:56 31° 53° (NE) 13:56:30 435.822/435.867
ISS 18 Oct 14:11:44 14:14:17 21° 176° (S) 14:16:51 437.550
SPROUT 18 Oct 14:21:30 14:25:42 50° 295° (WNW) 14:29:52 437.525
DX 1 18 Oct 14:24:38 14:28:53 47° 100° (E) 14:33:07 434.975-435.025
YUBILEINY 18 Oct 14:27:26 14:33:07 18° 338° (NNW) 14:38:51 435.215
SO-50 18 Oct 14:32:29 14:37:04 86° 31° (NNE) 14:41:43 436.795
50 SAT 18 Oct 14:38:05 14:41:25 78° 105° (ESE) 14:44:44 437.505
AO-7 18 Oct 14:38:13 14:46:32 88° 68° (ENE) 14:54:55 .
PCSat 18 Oct 14:40:28 14:45:37 40° 13° (NNE) 14:50:45 145.827
ESTCUBE 1 18 Oct 14:46:27 14:49:27 18° 312° (NW) 14:52:26 437.505/2401.250
VELOX 1 18 Oct 14:46:29 14:50:44 46° 297° (WNW) 14:54:58 145.980
AO-85 18 Oct 14:52:43 14:56:20 36° 130° (SE) 15:00:07 145.980
UKube-1 18 Oct 14:54:08 14:58:26 57° 103° (ESE) 15:02:42 .
MOZHAYETS 4 18 Oct 14:55:29 14:58:30 17° 85° (E) 15:01:29
BEESAT 2 18 Oct 14:58:01 15:01:55 50° 135° (SE) 15:05:53 435.950
ITUPSAT 1 18 Oct 15:00:24 15:03:31 17° 85° (E) 15:06:36 437.325
Oscar 19 18 Oct 15:01:56 15:05:12 17° 276° (W) 15:08:29 437.125/150
Gurwin Techsat 1B 18 Oct 15:12:27 15:16:12 19° 275° (W) 15:19:59 435.225
BEESAT 18 Oct 15:17:19 15:21:04 22° 89° (E) 15:24:47 436.000
BEESAT 3 18 Oct 15:20:53 15:24:55 69° 331° (NNW) 15:28:58 437.485
nSIGHT-1 18 Oct 15:21:26 15:23:46 19° 192° (SSW) 15:26:05 .
HO-68 18 Oct 15:22:36 15:27:28 20° 25° (NNE) 15:32:21 435.675
ITAMSAT 1 18 Oct 15:25:53 15:31:05 71° 254° (WSW) 15:36:21 435.822/435.867
DOVE 4 18 Oct 15:37:15 15:40:56 29° 57° (ENE) 15:44:48 437.250
XW-2D 18 Oct 15:39:18 15:40:26 11° 46° (NE) 15:41:34 145.860 - 145.880
CUTE-I 18 Oct 15:39:25 15:43:04 19° 42° (NE) 15:46:44 437.470
ISS 18 Oct 15:47:48 15:50:03 17° 196° (SSW) 15:52:19 437.550
NUDT-PHONESAT 18 Oct 15:50:46 15:51:16 10° 45° (NE) 15:51:46 437.300
XW-2B 18 Oct 15:51:51 15:53:40 13° 49° (NE) 15:55:29 145.730 - 145.750
SPROUT 18 Oct 15:58:37 16:00:44 14° 316° (NW) 16:02:51 437.525
DX 1 18 Oct 16:01:01 16:05:00 35° 301° (WNW) 16:08:58 434.975-435.025
50 SAT 18 Oct 16:11:12 16:13:21 16° 306° (NW) 16:15:29 437.505
SO-50 18 Oct 16:13:13 16:17:11 29° 235° (SW) 16:21:11 436.795
XW-2C 18 Oct 16:13:52 16:16:32 18° 54° (NE) 16:19:12 145.795 - 145.815
VELOX 1 18 Oct 16:24:12 16:26:15 13° 318° (NW) 16:28:18 145.980
PCSat 18 Oct 16:24:13 16:29:42 77° 38° (NE) 16:35:08 145.827
YUBILEINY 18 Oct 16:29:22 16:34:32 16° 13° (NNE) 16:39:44 435.215
UKube-1 18 Oct 16:30:30 16:34:16 29° 303° (WNW) 16:38:00 .
MOZHAYETS 4 18 Oct 16:31:45 16:36:25 82° 108° (ESE) 16:41:00
AO-85 18 Oct 16:32:36 16:36:33 66° 333° (NNW) 16:40:47 145.980
AO-7 18 Oct 16:33:02 16:40:21 33° 268° (W) 16:47:41 .
BEESAT 2 18 Oct 16:35:41 16:39:42 55° 336° (NNW) 16:43:44 435.950
CUBESAT XI-V 18 Oct 16:36:21 16:40:28 31° 93° (E) 16:44:34 437.345
ITUPSAT 1 18 Oct 16:37:19 16:42:11 77° 107° (ESE) 16:46:59 437.325
KKS-1 18 Oct 16:41:14 16:43:33 14° 84° (E) 16:45:53 437.445
CUBEBUG 2 18 Oct 16:43:03 16:45:12 13° 40° (NE) 16:47:21 437.445
BEESAT 18 Oct 16:54:36 16:59:26 81° 291° (WNW) 17:04:14 436.000
BEESAT 3 18 Oct 16:59:10 17:02:58 38° 353° (N) 17:06:45 437.485
LilacSat-2 18 Oct 16:59:43 17:03:19 41° 65° (ENE) 17:06:56 437.200
XW-2F 18 Oct 16:59:57 17:03:28 37° 63° (ENE) 17:06:58 145.980 - 146.000
KAITUO 1B 18 Oct 17:02:37 17:06:00 33° 62° (ENE) 17:09:22 145.475/437.950
HO-68 18 Oct 17:07:00 17:13:36 42° 49° (NE) 17:20:15 435.675
ITAMSAT 1 18 Oct 17:08:12 17:11:32 17° 276° (W) 17:14:52 435.822/435.867
XW-2D 18 Oct 17:10:08 17:13:48 48° 67° (ENE) 17:17:29 145.860 - 145.880
DOVE 4 18 Oct 17:14:15 17:18:26 56° 259° (W) 17:22:50 437.250
CUTE-I 18 Oct 17:17:01 17:22:14 59° 64° (ENE) 17:27:31 437.470
NUDT-PHONESAT 18 Oct 17:20:44 17:24:18 44° 66° (ENE) 17:27:51 437.300
STARS 18 Oct 17:20:57 17:23:24 14° 84° (E) 17:25:51 437.465
XW-2B 18 Oct 17:23:24 17:27:09 61° 69° (ENE) 17:30:55 145.730 - 145.750
UWE-3 18 Oct 17:25:25 17:28:16 16° 45° (NE) 17:31:05 435.000/436.395/437.385
DX 1 18 Oct 17:39:14 17:40:05 10° 323° (NW) 17:40:57 434.975-435.025
CUTE 1.7 + AOD 2 18 Oct 17:41:49 17:45:35 31° 60° (ENE) 17:49:20 437.475
XW-2C 18 Oct 17:46:27 17:50:17 84° 254° (WSW) 17:54:06 145.795 - 145.815
Oscar 11 18 Oct 17:51:33 17:52:53 11° 41° (NE) 17:54:12 .
SEEDS 18 Oct 17:53:56 17:57:31 28° 58° (ENE) 18:01:05 437.485
XW-2A 18 Oct 18:00:02 18:02:26 18° 56° (NE) 18:04:51 145.665 - 145.685
PCSat 18 Oct 18:07:54 18:12:49 35° 240° (WSW) 18:17:41 145.827
MOZHAYETS 4 18 Oct 18:09:27 18:13:08 24° 307° (NW) 18:16:48
CUBESAT XI-V 18 Oct 18:13:37 18:18:07 54° 295° (WNW) 18:22:35 437.345
AO-85 18 Oct 18:13:37 18:17:29 39° 357° (N) 18:21:37 145.980
BEESAT 2 18 Oct 18:14:13 18:18:02 37° 360° (N) 18:21:52 435.950
ITUPSAT 1 18 Oct 18:15:36 18:19:38 27° 308° (NW) 18:23:37 437.325
CUBEBUG 2 18 Oct 18:16:18 18:20:45 42° 62° (ENE) 18:25:15 437.445
KKS-1 18 Oct 18:16:28 18:20:59 68° 105° (ESE) 18:25:28 437.445
AO-73 18 Oct 18:23:10 18:26:39 22° 52° (NE) 18:30:08 145.935
AAUSAT CUBESAT 2 18 Oct 18:25:18 18:28:47 27° 58° (ENE) 18:32:16 437.432
YUBILEINY 18 Oct 18:27:39 18:35:09 30° 45° (NE) 18:42:39 435.215
BEESAT 18 Oct 18:33:00 18:36:38 22° 312° (NW) 18:40:14 436.000
XW-2F 18 Oct 18:34:10 18:37:37 33° 264° (W) 18:41:06 145.980 - 146.000
LilacSat-2 18 Oct 18:34:16 18:37:42 31° 265° (W) 18:41:09 437.200
KAITUO 1B 18 Oct 18:36:27 18:39:58 37° 262° (W) 18:43:28 145.475/437.950
BEESAT 3 18 Oct 18:37:17 18:41:11 45° 17° (NNE) 18:45:03 437.485
ZACube-1 18 Oct 18:43:00 18:47:01 30° 58° (ENE) 18:51:01 437.345
XW-2D 18 Oct 18:44:57 18:48:11 26° 267° (W) 18:51:26 145.860 - 145.880
HO-68 18 Oct 18:53:52 19:01:03 73° 253° (WSW) 19:08:18 435.675
NUDT-PHONESAT 18 Oct 18:55:06 18:58:20 27° 266° (W) 19:01:33 437.300
STARS 18 Oct 18:56:06 19:00:34 72° 106° (ESE) 19:05:00 437.465
DOVE 4 18 Oct 18:56:14 18:57:15 11° 281° (WNW) 18:58:17 437.250
CUTE-I 18 Oct 18:57:46 19:02:37 35° 266° (W) 19:07:31 437.470
XW-2B 18 Oct 18:58:44 19:01:40 21° 269° (W) 19:04:39 145.730 - 145.750
UWE-3 18 Oct 18:59:18 19:03:52 57° 67° (ENE) 19:08:30 435.000/436.395/437.385
CUTE 1.7 + AOD 2 18 Oct 19:17:11 19:21:18 49° 260° (W) 19:25:25 437.475
XW-2C 18 Oct 19:23:04 19:25:05 14° 275° (W) 19:27:06 145.795 - 145.815
Oscar 11 18 Oct 19:23:57 19:28:00 40° 62° (ENE) 19:32:04 .
SEEDS 18 Oct 19:28:53 19:32:59 56° 258° (WSW) 19:37:08 437.485
XW-2A 18 Oct 19:31:22 19:34:48 70° 256° (WSW) 19:38:13 145.665 - 145.685
STRAND 1 18 Oct 19:44:04 19:48:43 32° 93° (E) 19:53:20 437.568
CUBESAT XI-V 18 Oct 19:52:01 19:54:38 15° 316° (NW) 19:57:14 437.345
BEESAT 2 18 Oct 19:52:22 19:56:24 54° 23° (NNE) 20:00:22 435.950
CUBEBUG 2 18 Oct 19:52:54 19:57:23 43° 263° (W) 20:01:58 437.445
KKS-1 18 Oct 19:53:28 19:57:15 27° 305° (NW) 20:01:01 437.445
AO-85 18 Oct 19:54:24 19:58:32 52° 20° (NNE) 20:02:58 145.980
FO-29 18 Oct 19:56:18 20:00:17 16° 79° (E) 20:04:31 435.910
AO-73 18 Oct 19:57:47 20:02:23 90° 74° (ENE) 20:06:59 145.935
AAUSAT CUBESAT 2 18 Oct 19:59:58 20:04:01 56° 259° (WSW) 20:08:05 437.432
EO-88 18 Oct 20:00:35 20:02:52 16° 52° (NE) 20:05:10 145.990 - 145.960
Max Valier Satellite 18 Oct 20:04:23 20:07:13 21° 56° (NE) 20:10:03 145.860
DELFI C3 18 Oct 20:14:49 20:18:18 31° 61° (ENE) 20:21:49 145.870
BEESAT 3 18 Oct 20:14:57 20:18:58 72° 220° (SW) 20:22:56 437.485
ZACube-1 18 Oct 20:18:32 20:23:05 60° 258° (WSW) 20:27:39 437.345
YUBILEINY 18 Oct 20:24:49 20:33:39 75° 72° (ENE) 20:42:29 435.215
STARS 18 Oct 20:32:54 20:36:34 26° 306° (NW) 20:40:15 437.465
UWE-3 18 Oct 20:36:29 20:40:36 30° 267° (W) 20:44:47 435.000/436.395/437.385
O/OREOS (USA 219) 18 Oct 20:39:36 20:42:31 17° 101° (ESE) 20:45:27 437.305
HO-68 18 Oct 20:44:39 20:50:04 23° 276° (W) 20:55:33 435.675
LO-87 18 Oct 20:58:23 20:59:56 12° 49° (NE) 21:01:31 145.935 - 145.965
Oscar 11 18 Oct 21:00:06 21:04:11 39° 263° (W) 21:08:18 .
ESTCUBE 1 18 Oct 21:06:04 21:08:52 16° 46° (NE) 21:11:39 437.505/2401.250
XW-2A 18 Oct 21:07:53 21:08:11 10° 276° (W) 21:08:29 145.665 - 145.685
SEEDS 18 Oct 21:08:50 21:09:38 10° 280° (W) 21:10:26 437.485
UNISAT 6 18 Oct 21:15:03 21:17:21 13° 81° (E) 21:19:37 437.425
STRAND 1 18 Oct 21:23:08 21:28:15 62° 295° (WNW) 21:33:21 437.568
TIGRISAT 18 Oct 21:30:04 21:33:00 16° 84° (E) 21:35:54 435.000
BEESAT 2 18 Oct 21:30:13 21:34:11 51° 225° (SW) 21:38:06 435.950
EO-88 18 Oct 21:32:21 21:36:01 85° 77° (ENE) 21:39:43 145.990 - 145.960
AO-85 18 Oct 21:34:49 21:39:05 62° 222° (SW) 21:43:42 145.980
AO-73 18 Oct 21:35:59 21:39:15 19° 274° (W) 21:42:31 145.935
Max Valier Satellite 18 Oct 21:36:58 21:40:42 69° 256° (WSW) 21:44:28 145.860
AAUSAT CUBESAT 2 18 Oct 21:39:46 21:40:25 10° 280° (W) 21:41:05 437.432
FO-29 18 Oct 21:40:19 21:46:40 57° 101° (E) 21:53:47 435.910
DELFI C3 18 Oct 21:49:14 21:52:59 43° 261° (W) 21:56:46 145.870
BEESAT 3 18 Oct 21:53:13 21:55:56 18° 240° (WSW) 21:58:38 437.485
ZACube-1 18 Oct 21:58:20 22:00:20 13° 279° (W) 22:02:20 437.345
SPROUT 18 Oct 22:13:39 22:16:30 18° 49° (NE) 22:19:23 437.525
O/OREOS (USA 219) 18 Oct 22:16:39 22:21:14 76° 122° (ESE) 22:25:51 437.305
YUBILEINY 18 Oct 22:22:04 22:29:59 40° 277° (W) 22:37:55 435.215
LO-87 18 Oct 22:29:06 22:32:40 60° 70° (ENE) 22:36:16 145.935 - 145.965
ESTCUBE 1 18 Oct 22:40:29 22:44:55 62° 67° (ENE) 22:49:23 437.505/2401.250
VELOX 1 18 Oct 22:41:01 22:44:23 22° 51° (NE) 22:47:46 145.980
UNISAT 6 18 Oct 22:50:21 22:55:03 63° 103° (ESE) 22:59:36 437.425
PRISM 18 Oct 23:00:18 23:04:10 38° 98° (E) 23:08:02 437.425
STRAND 1 18 Oct 23:03:03 23:06:37 19° 317° (NW) 23:10:10 437.568
TIGRISAT 18 Oct 23:05:47 23:10:31 77° 106° (ESE) 23:15:08 435.000
EO-88 18 Oct 23:08:04 23:10:13 15° 273° (W) 23:12:22 145.990 - 145.960
BEESAT 2 18 Oct 23:09:27 23:11:04 12° 246° (WSW) 23:12:42 435.950
Max Valier Satellite 18 Oct 23:14:02 23:15:16 11° 277° (W) 23:16:30 145.860
AO-85 18 Oct 23:16:00 23:18:52 17° 242° (WSW) 23:21:51 145.980
FO-29 18 Oct 23:25:43 23:31:44 48° 301° (WNW) 23:38:30 435.910
AIST 2D 18 Oct 23:33:14 23:36:12 25° 94° (E) 23:39:08 435.315
50 SAT 18 Oct 23:44:02 23:46:24 19° 56° (NE) 23:48:47 437.505
RS-15 18 Oct 23:44:14 23:52:37 22° 96° (E) 00:00:57 29.354- 29.394
SPROUT 18 Oct 23:47:30 23:51:46 73° 70° (ENE) 23:56:06 437.525
DX 1 18 Oct 23:53:42 23:57:23 28° 55° (NE) 00:01:04 434.975-435.025
O/OREOS (USA 219) 18 Oct 23:56:56 00:01:06 32° 326° (NW) 00:05:17 437.305
LO-87 19 Oct 00:03:41 00:06:25 20° 270° (W) 00:09:11 145.935 - 145.965
EO-79 19 Oct 00:13:42 00:17:28 29° 94° (E) 00:21:12 145.935-145.965
VELOX 1 19 Oct 00:15:58 00:20:22 86° 250° (WSW) 00:24:49 145.980
POLYITAN 1 19 Oct 00:17:47 00:21:38 31° 94° (E) 00:25:26 437.675
ESTCUBE 1 19 Oct 00:18:19 00:22:06 26° 268° (W) 00:25:55 437.505/2401.250
YUBILEINY 19 Oct 00:21:08 00:24:12 12° 304° (WNW) 00:27:16 435.215
UKube-1 19 Oct 00:22:01 00:25:49 32° 58° (ENE) 00:29:39 .
UNISAT 6 19 Oct 00:27:24 00:31:29 30° 304° (NW) 00:35:30 437.425
MOZHAYETS 4 19 Oct 00:31:42 00:33:56 13° 41° (NE) 00:36:09
PRISM 19 Oct 00:35:39 00:39:29 38° 298° (WNW) 00:43:19 437.425
QB50P2 19 Oct 00:37:46 00:41:57 47° 99° (E) 00:46:05 145.880/145.840
ITUPSAT 1 19 Oct 00:40:26 00:43:18 16° 42° (NE) 00:46:10 437.325
TIGRISAT 19 Oct 00:42:57 00:46:48 26° 306° (NW) 00:50:36 435.000
NANOSAT C BR1 19 Oct 00:43:13 00:47:21 44° 99° (E) 00:51:26 145.865
DUCHIFAT 1 19 Oct 00:55:09 00:59:20 50° 100° (E) 01:03:28 145.980
BEESAT 19 Oct 00:56:42 01:00:02 19° 46° (NE) 01:03:23 436.000
AIST 2D 19 Oct 01:06:13 01:09:32 42° 294° (WNW) 01:12:50 435.315
BUGSAT 1 19 Oct 01:11:22 01:14:59 26° 92° (E) 01:18:33 437.445
FO-29 19 Oct 01:11:30 01:15:40 19° 323° (NW) 01:20:06 435.910
50 SAT 19 Oct 01:15:11 01:18:26 62° 257° (WSW) 01:21:42 437.505
Oscar 19 19 Oct 01:22:06 01:26:03 22° 88° (E) 01:29:57 437.125/150
SPROUT 19 Oct 01:24:51 01:28:09 21° 271° (W) 01:31:29 437.525
DX 1 19 Oct 01:29:00 01:33:18 63° 256° (WSW) 01:37:39 434.975-435.025
Gurwin Techsat 1B 19 Oct 01:37:02 01:41:07 22° 87° (E) 01:45:11 435.225
O/OREOS (USA 219) 19 Oct 01:38:38 01:41:51 18° 350° (N) 01:45:04 437.305
EO-79 19 Oct 01:49:17 01:53:29 53° 294° (WNW) 01:57:38 145.935-145.965
RS-15 19 Oct 01:50:34 02:02:27 58° 123° (ESE) 02:14:10 29.354- 29.394
POLYITAN 1 19 Oct 01:53:27 01:57:37 49° 295° (WNW) 02:01:45 437.675
VELOX 1 19 Oct 01:54:36 01:57:30 17° 273° (W) 02:00:25 145.980
UKube-1 19 Oct 01:57:31 02:01:43 52° 258° (WSW) 02:05:58 .
MOZHAYETS 4 19 Oct 02:05:41 02:10:07 45° 63° (ENE) 02:14:33
CUBESAT XI-V 19 Oct 02:12:47 02:16:13 21° 50° (NE) 02:19:38 437.345
PRISM 19 Oct 02:12:57 02:13:47 11° 320° (NW) 02:14:37 437.425
QB50P2 19 Oct 02:13:47 02:17:39 34° 300° (WNW) 02:21:30 145.880/145.840
KKS-1 19 Oct 02:14:23 02:15:56 12° 38° (NE) 02:17:30 437.445
ITUPSAT 1 19 Oct 02:15:33 02:20:13 52° 63° (ENE) 02:24:56 437.325
NANOSAT C BR1 19 Oct 02:19:06 02:23:01 35° 300° (WNW) 02:26:53 145.865
M-CUBED/EXP-1 PRIME 19 Oct 02:21:19 02:24:15 26° 104° (ESE) 02:27:18 437.505
AO-7 19 Oct 02:30:06 02:35:03 17° 78° (ENE) 02:39:59 .
DUCHIFAT 1 19 Oct 02:31:05 02:34:53 32° 301° (WNW) 02:38:39 145.980
BEESAT 19 Oct 02:32:21 02:37:07 69° 67° (ENE) 02:41:54 436.000
BUGSAT 1 19 Oct 02:46:27 02:50:40 58° 293° (WNW) 02:54:49 437.445
STARS 19 Oct 02:52:49 02:54:23 12° 39° (NE) 02:55:57 437.465
Oscar 19 19 Oct 03:00:54 03:06:05 89° 290° (WNW) 03:11:13 437.125/150
DX 1 19 Oct 03:08:35 03:10:24 12° 277° (W) 03:12:14 434.975-435.025
Gurwin Techsat 1B 19 Oct 03:16:27 03:21:49 89° 109° (ESE) 03:27:10 435.225
O/OREOS (USA 219) 19 Oct 03:19:29 03:22:55 20° 16° (NNE) 03:26:20 437.305
EO-79 19 Oct 03:26:12 03:28:25 14° 315° (NW) 03:30:37 145.935-145.965
ITAMSAT 1 19 Oct 03:29:31 03:33:32 22° 88° (E) 03:37:30 435.822/435.867
POLYITAN 1 19 Oct 03:30:29 03:32:32 13° 317° (NW) 03:34:35 437.675
UKube-1 19 Oct 03:38:44 03:38:46 10° 279° (W) 03:38:48 .
MOZHAYETS 4 19 Oct 03:43:03 03:47:23 38° 264° (W) 03:51:44
KKS-1 19 Oct 03:47:19 03:51:27 38° 60° (ENE) 03:55:36 437.445
CUBESAT XI-V 19 Oct 03:48:24 03:53:02 84° 74° (ENE) 03:57:41 437.345
ITUPSAT 1 19 Oct 03:53:52 03:58:16 35° 264° (W) 04:02:42 437.325
M-CUBED/EXP-1 PRIME 19 Oct 03:55:37 03:58:52 44° 302° (WNW) 04:02:14 437.505
STRAND 1 19 Oct 03:56:40 03:57:51 11° 29° (NNE) 03:59:01 437.568
NANOSAT C BR1 19 Oct 03:57:11 03:57:38 10° 321° (NW) 03:58:06 145.865
RS-15 19 Oct 04:02:15 04:14:43 81° 332° (NNW) 04:26:51 29.354- 29.394
NO-84 19 Oct 04:02:33 04:03:43 11° 135° (SE) 04:04:52 435.350 FM
BEESAT 19 Oct 04:11:18 04:15:19 26° 268° (W) 04:19:23 436.000
AO-7 19 Oct 04:21:51 04:29:59 54° 103° (ESE) 04:38:04 .
BUGSAT 1 19 Oct 04:22:51 04:25:15 15° 314° (NW) 04:27:39 437.445
STARS 19 Oct 04:25:35 04:29:42 39° 60° (ENE) 04:33:50 437.465
FO-29 19 Oct 04:40:07 04:41:05 10° 15° (NNE) 04:42:05 435.910
Oscar 19 19 Oct 04:40:45 04:44:53 25° 311° (NW) 04:48:59 437.125/150
Gurwin Techsat 1B 19 Oct 04:56:53 05:01:17 27° 310° (NW) 05:05:39 435.225
O/OREOS (USA 219) 19 Oct 04:59:04 05:03:29 42° 40° (NE) 05:07:53 437.305
DOVE 4 19 Oct 05:02:52 05:06:44 23° 89° (E) 05:10:45 437.250
ITAMSAT 1 19 Oct 05:08:26 05:13:43 89° 109° (ESE) 05:18:59 435.822/435.867
KKS-1 19 Oct 05:23:46 05:28:00 43° 261° (W) 05:32:18 437.445
CUTE-I 19 Oct 05:26:10 05:28:01 12° 78° (ENE) 05:29:51 437.470
CUBESAT XI-V 19 Oct 05:27:33 05:31:01 20° 272° (W) 05:34:29 437.345
STRAND 1 19 Oct 05:31:13 05:35:34 29° 52° (NE) 05:39:58 437.568
M-CUBED/EXP-1 PRIME 19 Oct 05:31:46 05:32:38 11° 322° (NW) 05:33:31 437.505
NO-84 19 Oct 05:36:31 05:40:10 28° 155° (SSE) 05:43:42 435.350 FM
XW-2F 19 Oct 05:57:10 05:59:27 15° 87° (E) 06:01:43 145.980 - 146.000
LilacSat-2 19 Oct 05:58:09 06:00:45 17° 88° (E) 06:03:20 437.200
KAITUO 1B 19 Oct 05:58:57 06:00:46 13° 85° (E) 06:02:35 145.475/437.950
STARS 19 Oct 06:01:52 06:06:03 42° 261° (W) 06:10:17 437.465
XW-2D 19 Oct 06:07:40 06:10:31 20° 90° (E) 06:13:21 145.860 - 145.880
HO-68 19 Oct 06:12:11 06:16:20 16° 77° (ENE) 06:20:26 435.675
AO-7 19 Oct 06:14:53 06:23:00 61° 306° (NW) 06:31:07 .
NUDT-PHONESAT 19 Oct 06:15:46 06:18:18 17° 89° (E) 06:20:50 437.300
RS-15 19 Oct 06:16:12 06:28:33 69° 4° (N) 06:40:24 29.354- 29.394
FO-29 19 Oct 06:20:03 06:24:06 22° 40° (NE) 06:28:27 435.910
XW-2B 19 Oct 06:20:53 06:24:02 25° 93° (E) 06:27:10 145.730 - 145.750
O/OREOS (USA 219) 19 Oct 06:38:34 06:43:04 52° 243° (WSW) 06:47:32 437.305
Gurwin Techsat 1B 19 Oct 06:38:40 06:39:40 10° 334° (NNW) 06:40:40 435.225
DOVE 4 19 Oct 06:40:08 06:44:55 79° 289° (WNW) 06:49:59 437.250
XW-2C 19 Oct 06:43:49 06:47:22 39° 98° (E) 06:50:54 145.795 - 145.815
ITAMSAT 1 19 Oct 06:48:25 06:52:42 26° 311° (NW) 06:56:59 435.822/435.867
UNISAT 6 19 Oct 06:49:14 06:50:31 11° 37° (NE) 06:51:48 437.425
CUTE 1.7 + AOD 2 19 Oct 06:53:00 06:55:50 17° 86° (E) 06:58:38 437.475
TIGRISAT 19 Oct 07:03:42 07:05:40 13° 39° (NE) 07:07:38 435.000
SEEDS 19 Oct 07:03:58 07:06:21 15° 85° (E) 07:08:44 437.485
CUTE-I 19 Oct 07:04:11 07:09:25 49° 100° (E) 07:14:38 437.470
STRAND 1 19 Oct 07:09:14 07:14:23 78° 254° (WSW) 07:19:35 437.568
NO-84 19 Oct 07:13:06 07:17:07 45° 175° (S) 07:20:53 435.350 FM
XW-2F 19 Oct 07:30:21 07:34:07 84° 288° (WNW) 07:37:51 145.980 - 146.000
KAITUO 1B 19 Oct 07:31:40 07:35:23 84° 106° (ESE) 07:39:05 145.475/437.950
LilacSat-2 19 Oct 07:31:42 07:35:30 74° 288° (WNW) 07:39:16 437.200
AAUSAT CUBESAT 2 19 Oct 07:33:29 07:35:39 14° 84° (E) 07:37:50 437.432
CUBEBUG 2 19 Oct 07:34:07 07:38:08 27° 90° (E) 07:42:04 437.445
AO-73 19 Oct 07:38:34 07:39:38 11° 79° (E) 07:40:42 145.935
XW-2D 19 Oct 07:41:20 07:45:05 63° 290° (WNW) 07:48:47 145.860 - 145.880
YUBILEINY 19 Oct 07:45:13 07:50:45 19° 66° (ENE) 07:56:20 435.215
NUDT-PHONESAT 19 Oct 07:48:56 07:52:37 71° 289° (WNW) 07:56:15 437.300
XW-2B 19 Oct 07:54:48 07:58:27 49° 293° (WNW) 08:02:05 145.730 - 145.750
ZACube-1 19 Oct 07:58:07 08:01:04 17° 85° (E) 08:03:57 437.345
HO-68 19 Oct 07:58:45 08:05:50 54° 101° (E) 08:12:53 435.675
FO-29 19 Oct 08:02:57 08:08:14 66° 65° (ENE) 08:14:06 435.910
AO-7 19 Oct 08:07:43 08:14:31 29° 332° (NNW) 08:21:18 .
SO-50 19 Oct 08:15:09 08:19:18 38° 130° (SE) 08:23:31 436.795
UWE-3 19 Oct 08:15:53 08:20:08 35° 94° (E) 08:24:17 435.000/436.395/437.385
XW-2A 19 Oct 08:16:30 08:19:35 32° 97° (E) 08:22:38 145.665 - 145.685
XW-2C 19 Oct 08:18:08 08:21:32 32° 298° (WNW) 08:24:53 145.795 - 145.815
DOVE 4 19 Oct 08:18:32 08:22:04 21° 309° (NW) 08:25:44 437.250
O/OREOS (USA 219) 19 Oct 08:20:11 08:21:28 11° 264° (W) 08:22:45 437.305
UNISAT 6 19 Oct 08:21:48 08:26:01 34° 59° (ENE) 08:30:18 437.425
PRISM 19 Oct 08:24:21 08:27:20 20° 52° (NE) 08:30:19 437.425
CUTE 1.7 + AOD 2 19 Oct 08:28:02 08:32:16 88° 296° (WNW) 08:36:29 437.475
ITAMSAT 1 19 Oct 08:29:49 08:30:37 10° 334° (NNW) 08:31:26 435.822/435.867
